FW5778 Weather Reports


Display with metric or nautical units.
time (UTC)temp
F
wind
direction
speed
MPH
gust
MPH
rain 1hr
in
rain 24hr
in
rain mn
in
humidity
%
barometer
mb
20260508062051 58 248 1.0 4.0 0.00 0.00 0.00 41 1015.6
20260508061555 58 274 2.0 3.0 0.00 0.00 0.00 41 1015.7
20260508061050 58 256 1.0 2.0 0.00 0.00 0.00 41 1015.6
20260508060548 58 296 1.0 2.0 0.00 0.00 0.00 41 1015.6
20260508060054 58 328 0.0 3.0 0.00 0.00 0.00 42 1015.6
20260508055547 58 27 2.0 7.0 0.00 0.00 0.00 43 1015.4
20260508055049 58 41 4.0 7.0 0.00 0.00 0.00 42 1015.4
20260508054547 59 104 0.0 0.0 0.00 0.00 0.00 41 1015.2
20260508054046 59 104 0.0 3.0 0.00 0.00 0.00 40 1015.2
20260508053549 60 271 0.0 4.0 0.00 0.00 0.00 38 1015.2
20260508053047 60 273 2.0 5.0 0.00 0.00 0.00 39 1015.2
20260508052545 60 270 2.0 5.0 0.00 0.00 0.00 39 1015.2
20260508052047 60 240 2.0 5.0 0.00 0.00 0.00 39 1015.2
20260508051546 60 276 2.0 4.0 0.00 0.00 0.00 39 1015.1
20260508051046 60 269 1.0 3.0 0.00 0.00 0.00 40 1015.1
20260508050545 60 269 2.0 3.0 0.00 0.00 0.00 39 1015.1
20260508050047 60 259 1.0 4.0 0.00 0.00 0.00 40 1015.2
20260508045544 60 259 1.0 4.0 0.00 0.00 0.00 40 1015.2
20260508045048 60 278 1.0 2.0 0.00 0.00 0.00 39 1015.2
20260508044545 61 250 1.0 3.0 0.00 0.00 0.00 39 1015.1
20260508044045 61 239 2.0 4.0 0.00 0.00 0.00 38 1015.1
20260508043545 61 281 1.0 4.0 0.00 0.00 0.00 39 1015.2
20260508043044 61 251 2.0 4.0 0.00 0.00 0.00 38 1015.2
20260508042545 61 238 1.0 4.0 0.00 0.00 0.00 38 1015.2
20260508042044 61 239 1.0 4.0 0.00 0.00 0.00 38 1015.2
20260508041544 61 255 2.0 3.0 0.00 0.00 0.00 38 1015.2
20260508041044 61 245 2.0 3.0 0.00 0.00 0.00 38 1015.2
20260508040543 61 244 2.0 4.0 0.00 0.00 0.00 38 1015.2
20260508040050 62 252 1.0 3.0 0.00 0.00 0.00 38 1015.2
20260508035542 62 243 1.0 3.0 0.00 0.00 0.00 37 1015.1
20260508035042 62 262 1.0 3.0 0.00 0.00 0.00 37 1015.0
20260508034543 62 250 1.0 3.0 0.00 0.00 0.00 36 1014.9
20260508034042 63 267 2.0 4.0 0.00 0.00 0.00 36 1014.9
20260508033543 63 253 2.0 4.0 0.00 0.00 0.00 36 1015.0
20260508033042 63 274 2.0 4.0 0.00 0.00 0.00 35 1015.0
20260508032542 64 269 2.0 4.0 0.00 0.00 0.00 35 1014.9
20260508032041 64 245 1.0 3.0 0.00 0.00 0.00 34 1014.8
20260508031541 64 266 1.0 3.0 0.00 0.00 0.00 34 1014.8
20260508031042 65 258 1.0 3.0 0.00 0.00 0.00 33 1014.8
20260508030541 65 247 1.0 3.0 0.00 0.00 0.00 34 1014.7
20260508030041 65 247 0.0 3.0 0.00 0.00 0.00 33 1014.7
20260508025541 66 91 0.0 0.0 0.00 0.00 0.00 32 1014.7
20260508025040 67 91 0.0 0.0 0.00 0.00 0.00 31 1014.6
20260508024548 67 91 0.0 0.0 0.00 0.00 0.00 29 1014.6
20260508024040 67 91 0.0 0.0 0.00 0.00 0.00 30 1014.6
20260508023541 68 91 0.0 0.0 0.00 0.00 0.00 28 1014.6
20260508023040 69 91 0.0 0.0 0.00 0.00 0.00 27 1014.5
20260508022539 70 91 0.0 0.0 0.00 0.00 0.00 26 1014.5
20260508022039 71 91 0.0 0.0 0.00 0.00 0.00 25 1014.5
20260508021540 72 91 0.0 0.0 0.00 0.00 0.00 25 1014.5
20260508021039 72 90 0.0 0.0 0.00 0.00 0.00 24 1014.4
20260508020538 73 90 0.0 0.0 0.00 0.00 0.00 24 1014.5
20260508020039 73 90 0.0 0.0 0.00 0.00 0.00 24 1014.5
20260508015538 73 90 0.0 0.0 0.00 0.00 0.00 23 1014.4
20260508015039 73 75 0.0 2.0 0.00 0.00 0.00 24 1014.5
20260508014542 73 122 0.0 4.0 0.00 0.00 0.00 23 1014.5
20260508014037 73 100 2.0 5.0 0.00 0.00 0.00 23 1014.5
20260508013538 73 131 0.0 5.0 0.00 0.00 0.00 23 1014.5
20260508013040 73 82 0.0 5.0 0.00 0.00 0.00 23 1014.5
20260508012536 73 103 1.0 5.0 0.00 0.00 0.00 22 1014.5
20260508012039 74 95 1.0 3.0 0.00 0.00 0.00 22 1014.5
20260508011537 73 89 0.0 4.0 0.00 0.00 0.00 23 1014.6
20260508011036 73 57 2.0 5.0 0.00 0.00 0.00 22 1014.5
20260508010535 73 61 0.0 6.0 0.00 0.00 0.00 23 1014.5
20260508010036 73 111 3.0 6.0 0.00 0.00 0.00 23 1014.6
20260508005538 73 49 4.0 6.0 0.00 0.00 0.00 22 1014.7
20260508005035 73 81 3.0 6.0 0.00 0.00 0.00 23 1014.7
20260508004535 73 74 0.0 3.0 0.00 0.00 0.00 23 1014.9
20260508004033 72 276 0.0 3.0 0.00 0.00 0.00 24 1015.0
20260508003533 72 108 2.0 3.0 0.00 0.00 0.00 23 1015.0
20260508003031 72 98 0.0 3.0 0.00 0.00 0.00 23 1015.1
20260508002532 73 98 2.0 3.0 0.00 0.00 0.00 23 1015.1
20260508002031 73 64 0.0 0.0 0.00 0.00 0.00 23 1015.1
20260508001531 73 100 0.0 3.0 0.00 0.00 0.00 23 1015.2
20260508001030 73 37 0.0 3.0 0.00 0.00 0.00 22 1015.2
20260508000531 73 109 0.0 4.0 0.00 0.00 0.00 23 1015.2
20260508000030 73 104 0.0 7.0 0.00 0.00 0.00 23 1015.2
20260507235529 73 162 4.0 7.0 0.00 0.00 0.00 23 1015.3
20260507235028 73 74 2.0 8.0 0.00 0.00 0.00 22 1015.3
20260507234528 73 63 3.0 8.0 0.00 0.00 0.00 22 1015.3
20260507234027 74 111 1.0 5.0 0.00 0.00 0.00 21 1015.4
20260507233527 74 99 0.0 6.0 0.00 0.00 0.00 22 1015.5
20260507233038 74 330 3.0 8.0 0.00 0.00 0.00 22 1015.7
20260507232527 74 304 4.0 8.0 0.00 0.00 0.00 22 1015.7
20260507232024 74 84 3.0 8.0 0.00 0.00 0.00 22 1015.7
20260507231533 73 48 2.0 7.0 0.00 0.00 0.00 23 1016.0
20260507231022 73 119 2.0 8.0 0.00 0.00 0.00 23 1016.1
20260507230522 73 36 4.0 8.0 0.00 0.00 0.00 23 1016.2
20260507230021 74 5 3.0 7.0 0.00 0.00 0.00 22 1016.3
20260507225521 74 21 1.0 10.0 0.00 0.00 0.00 22 1016.3
20260507225020 73 35 3.0 10.0 0.00 0.00 0.00 23 1016.3
20260507224519 74 37 3.0 7.0 0.00 0.00 0.00 22 1016.4
20260507224019 73 341 2.0 9.0 0.00 0.00 0.00 23 1016.5
20260507223518 73 56 3.0 11.0 0.00 0.00 0.00 22 1016.5
20260507223018 73 32 5.0 9.0 0.00 0.00 0.00 22 1016.6
20260507222517 73 293 2.0 12.0 0.00 0.00 0.00 22 1016.6
20260507222016 73 44 3.0 8.0 0.00 0.00 0.00 22 1016.8
20260507221516 73 46 3.0 9.0 0.00 0.00 0.00 22 1016.8
20260507221016 73 36 5.0 11.0 0.00 0.00 0.00 22 1017.0
20260507220514 74 4 4.0 9.0 0.00 0.00 0.00 23 1017.0
20260507220018 73 314 4.0 9.0 0.00 0.00 0.00 23 1017.0
20260507215513 74 223 2.0 7.0 0.00 0.00 0.00 22 1017.1
20260507215113 74 41 3.0 10.0 0.00 0.00 0.00 22 1017.2
20260507214511 73 19 6.0 10.0 0.00 0.00 0.00 22 1017.3
20260507214011 73 34 4.0 9.0 0.00 0.00 0.00 22 1017.4
20260507213513 73 98 2.0 9.0 0.00 0.00 0.00 22 1017.4
20260507213012 73 32 6.0 11.0 0.00 0.00 0.00 22 1017.5
20260507212509 73 15 7.0 11.0 0.00 0.00 0.00 22 1017.7
20260507212008 73 338 6.0 10.0 0.00 0.00 0.00 21 1017.8
20260507211514 73 39 3.0 13.0 0.00 0.00 0.00 22 1017.9
20260507211008 73 56 7.0 13.0 0.00 0.00 0.00 22 1017.9
20260507210506 73 13 4.0 12.0 0.00 0.00 0.00 20 1018.2
20260507210006 74 8 6.0 12.0 0.00 0.00 0.00 21 1018.3
20260507205505 73 71 2.0 7.0 0.00 0.00 0.00 22 1018.3
20260507205005 73 94 3.0 10.0 0.00 0.00 0.00 21 1018.4
20260507204507 73 70 3.0 10.0 0.00 0.00 0.00 21 1018.5
20260507204004 73 295 4.0 8.0 0.00 0.00 0.00 21 1018.5
20260507203507 73 11 5.0 8.0 0.00 0.00 0.00 21 1018.6
20260507203002 72 89 1.0 7.0 0.00 0.00 0.00 21 1018.6
20260507202502 73 35 3.0 7.0 0.00 0.00 0.00 21 1018.7
20260507202001 73 58 1.0 5.0 0.00 0.00 0.00 20 1018.8
20260507201617 73 6 2.0 5.0 0.00 0.00 0.00 20 1018.9
20260507201100 73 41 1.0 6.0 0.00 0.00 0.00 20 1018.9
20260507200558 73 108 2.0 7.0 0.00 0.00 0.00 20 1019.0
20260507200109 73 136 2.0 7.0 0.00 0.00 0.00 22 1019.1
20260507195556 72 95 4.0 8.0 0.00 0.00 0.00 21 1019.1
20260507195055 72 193 3.0 8.0 0.00 0.00 0.00 21 1019.3
20260507194555 71 133 5.0 14.0 0.00 0.00 0.00 22 1019.3
20260507194054 71 136 6.0 14.0 0.00 0.00 0.00 21 1019.3
20260507193553 70 117 5.0 11.0 0.00 0.00 0.00 22 1019.3
20260507193054 71 115 5.0 10.0 0.00 0.00 0.00 22 1019.4
20260507192554 70 167 5.0 16.0 0.00 0.00 0.00 23 1019.4
20260507192050 69 90 7.0 15.0 0.00 0.00 0.00 23 1019.5
20260507191548 69 157 9.0 18.0 0.00 0.00 0.00 22 1019.7
20260507191046 68 181 10.0 18.0 0.00 0.00 0.00 23 1019.7
20260507190549 68 152 6.0 18.0 0.00 0.00 0.00 24 1019.8
20260507190049 68 134 7.0 18.0 0.00 0.00 0.00 24 1019.8
20260507185549 68 123 7.0 17.0 0.00 0.00 0.00 24 1019.9
20260507185043 68 131 8.0 17.0 0.00 0.00 0.00 24 1019.9
20260507184547 67 174 6.0 15.0 0.00 0.00 0.00 25 1020.0
20260507184041 67 149 7.0 18.0 0.00 0.00 0.00 24 1020.2
20260507183539 66 124 8.0 18.0 0.00 0.00 0.00 26 1020.2
20260507183041 66 117 8.0 14.0 0.00 0.00 0.00 25 1020.4
20260507182538 66 117 7.0 17.0 0.00 0.00 0.00 26 1020.4
20260507182037 65 139 10.0 17.0 0.00 0.00 0.00 25 1020.5
20260507181535 65 144 7.0 16.0 0.00 0.00 0.00 26 1020.5
20260507181035 65 158 6.0 16.0 0.00 0.00 0.00 26 1020.6
20260507180537 64 203 7.0 18.0 0.00 0.00 0.00 26 1020.7
20260507180038 64 144 9.0 18.0 0.00 0.00 0.00 25 1020.6
20260507175532 64 153 9.0 17.0 0.00 0.00 0.00 24 1020.7
20260507175033 64 148 8.0 17.0 0.00 0.00 0.00 25 1020.8
20260507174530 64 167 10.0 19.0 0.00 0.00 0.00 25 1020.8
20260507174032 64 172 11.0 19.0 0.00 0.00 0.00 25 1020.9
20260507173531 63 170 10.0 19.0 0.00 0.00 0.00 25 1020.9
20260507173031 63 125 8.0 19.0 0.00 0.00 0.00 25 1020.9
20260507172526 63 159 11.0 20.0 0.00 0.00 0.00 24 1021.0
20260507172024 62 166 11.0 20.0 0.00 0.00 0.00 25 1020.9
20260507171523 62 158 7.0 23.0 0.00 0.00 0.00 25 1021.1
20260507171022 61 111 11.0 23.0 0.00 0.00 0.00 26 1021.1
20260507170520 61 186 8.0 21.0 0.00 0.00 0.00 27 1021.0
20260507170020 60 163 11.0 20.0 0.00 0.00 0.00 27 1021.1
20260507165518 60 160 9.0 18.0 0.00 0.00 0.00 28 1021.1
20260507165018 59 153 7.0 25.0 0.00 0.00 0.00 29 1021.3
20260507164516 59 146 11.0 25.0 0.00 0.00 0.00 29 1021.2
20260507164015 59 151 9.0 19.0 0.00 0.00 0.00 30 1021.3
20260507163516 59 174 9.0 23.0 0.00 0.00 0.00 30 1021.5
20260507163014 59 160 11.0 23.0 0.00 0.00 0.00 30 1021.3
20260507162514 59 176 11.0 19.0 0.00 0.00 0.00 30 1021.3
20260507162014 58 145 11.0 19.0 0.00 0.00 0.00 30 1021.3
20260507161512 58 146 9.0 20.0 0.00 0.00 0.00 31 1021.3
20260507161012 58 155 10.0 20.0 0.00 0.00 0.00 32 1021.3
20260507160510 57 167 10.0 21.0 0.00 0.00 0.00 33 1021.3
20260507160009 57 156 11.0 21.0 0.00 0.00 0.00 33 1021.3
20260507155508 57 149 9.0 15.0 0.00 0.00 0.00 35 1021.3
20260507155007 56 143 9.0 19.0 0.00 0.00 0.00 36 1021.3
20260507154506 56 139 9.0 19.0 0.00 0.00 0.00 36 1021.4
20260507154009 56 130 10.0 18.0 0.00 0.00 0.00 38 1021.5
20260507153504 55 164 11.0 21.0 0.00 0.00 0.00 39 1021.6
20260507153003 55 153 9.0 22.0 0.00 0.00 0.00 38 1021.6
20260507152503 55 156 8.0 22.0 0.00 0.00 0.00 38 1021.6
20260507152003 55 148 10.0 20.0 0.00 0.00 0.00 41 1021.6
20260507151503 55 189 9.0 20.0 0.00 0.00 0.00 41 1021.6
20260507151003 55 149 11.0 19.0 0.00 0.00 0.00 40 1021.6
20260507150502 55 153 9.0 23.0 0.00 0.00 0.00 40 1021.5
20260507150002 55 160 10.0 23.0 0.00 0.00 0.00 41 1021.6
20260507145500 55 175 14.0 23.0 0.00 0.00 0.00 41 1021.6
20260507145101 55 153 10.0 22.0 0.00 0.00 0.00 41 1021.6
20260507144558 54 180 13.0 22.0 0.00 0.00 0.00 40 1021.6
20260507144101 53 113 10.0 23.0 0.00 0.00 0.00 42 1021.6
20260507143557 53 131 13.0 23.0 0.00 0.00 0.00 43 1021.7
20260507143103 53 165 10.0 23.0 0.00 0.00 0.00 43 1021.8
20260507142557 53 130 10.0 23.0 0.00 0.00 0.00 42 1021.7
20260507142056 53 146 11.0 25.0 0.00 0.00 0.00 40 1021.8
20260507141556 53 167 12.0 25.0 0.00 0.00 0.00 39 1021.6
20260507141056 53 149 7.0 22.0 0.00 0.00 0.00 40 1021.7
20260507140556 53 153 11.0 23.0 0.00 0.00 0.00 40 1021.7
20260507140057 53 154 14.0 23.0 0.00 0.00 0.00 40 1021.7
20260507135554 53 122 13.0 22.0 0.00 0.00 0.00 43 1021.7
20260507135054 52 155 8.0 25.0 0.00 0.00 0.00 44 1021.8
20260507134557 52 163 11.0 26.0 0.00 0.00 0.00 44 1021.8
20260507134054 52 146 12.0 23.0 0.00 0.00 0.00 46 1021.7
20260507133555 51 169 8.0 18.0 0.00 0.00 0.00 52 1021.8
20260507133120 51 158 8.0 19.0 0.00 0.00 0.00 53 1021.7
20260507132555 51 124 10.0 19.0 0.00 0.00 0.00 54 1021.7
20260507132052 50 169 8.0 19.0 0.00 0.00 0.00 54 1021.8
20260507131555 50 130 7.0 16.0 0.00 0.00 0.00 55 1021.8
20260507131052 50 169 8.0 16.0 0.00 0.00 0.00 55 1021.8
20260507130551 50 116 7.0 16.0 0.00 0.00 0.00 55 1021.7
20260507130105 50 146 8.0 17.0 0.00 0.00 0.00 55 1021.7
20260507125549 51 192 9.0 18.0 0.00 0.00 0.00 49 1021.7
20260507125048 51 169 8.0 18.0 0.00 0.00 0.00 44 1021.8
20260507124548 51 180 7.0 14.0 0.00 0.00 0.00 42 1021.8
20260507124048 51 194 6.0 16.0 0.00 0.00 0.00 41 1021.7
20260507123548 51 146 5.0 16.0 0.00 0.00 0.00 38 1021.8
20260507123051 51 233 6.0 15.0 0.00 0.00 0.00 38 1021.8
20260507122546 51 188 7.0 19.0 0.00 0.00 0.00 38 1021.6
20260507122047 51 180 8.0 19.0 0.00 0.00 0.00 37 1021.8
20260507121601 51 178 7.0 21.0 0.00 0.00 0.00 37 1021.7
20260507121046 51 144 9.0 21.0 0.00 0.00 0.00 37 1021.5
20260507120544 51 147 11.0 19.0 0.00 0.00 0.00 38 1021.5
20260507120053 51 232 9.0 17.0 0.00 0.00 0.00 39 1021.5
20260507115542 50 208 7.0 13.0 0.00 0.00 0.00 42 1021.6
20260507115041 50 147 4.0 13.0 0.00 0.00 0.00 47 1021.6
20260507114614 50 137 6.0 16.0 0.00 0.00 0.00 50 1021.7
20260507114040 50 143 4.0 16.0 0.00 0.00 0.00 52 1021.7
20260507113541 50 161 7.0 11.0 0.00 0.00 0.00 52 1021.8
20260507113038 50 155 5.0 11.0 0.00 0.00 0.00 50 1021.9
20260507112536 50 153 5.0 11.0 0.00 0.00 0.00 48 1022.0
20260507112038 51 194 5.0 12.0 0.00 0.00 0.00 46 1022.1
20260507111536 51 164 6.0 13.0 0.00 0.00 0.00 43 1022.1
20260507111034 51 184 5.0 13.0 0.00 0.00 0.00 41 1022.1
20260507110534 51 162 5.0 13.0 0.00 0.00 0.00 42 1022.1
20260507110033 51 171 6.0 15.0 0.00 0.00 0.00 45 1022.0
20260507105533 51 157 7.0 16.0 0.00 0.00 0.00 45 1022.0
20260507105037 52 155 8.0 18.0 0.00 0.00 0.00 43 1022.0
20260507104531 52 133 8.0 18.0 0.00 0.00 0.00 42 1021.9
20260507104031 52 171 8.0 16.0 0.00 0.00 0.00 41 1022.0
20260507103532 52 156 7.0 15.0 0.00 0.00 0.00 42 1022.1
20260507103029 52 169 7.0 19.0 0.00 0.00 0.00 42 1022.2
20260507102529 52 162 8.0 19.0 0.00 0.00 0.00 41 1022.2
20260507102029 52 226 8.0 16.0 0.00 0.00 0.00 40 1022.2
20260507101528 52 154 9.0 16.0 0.00 0.00 0.00 38 1022.2
20260507101027 52 153 8.0 16.0 0.00 0.00 0.00 38 1022.2
20260507100526 52 204 8.0 16.0 0.00 0.00 0.00 38 1022.3
20260507100027 52 157 6.0 15.0 0.00 0.00 0.00 38 1022.2
20260507095526 52 195 7.0 16.0 0.00 0.01 0.00 38 1022.3
20260507095024 52 169 7.0 13.0 0.00 0.01 0.00 39 1022.4
20260507094524 52 146 8.0 13.0 0.00 0.01 0.00 39 1022.5
20260507094022 52 201 6.0 14.0 0.00 0.01 0.00 39 1022.6
20260507093522 52 152 6.0 13.0 0.00 0.01 0.00 40 1022.7
20260507093025 52 150 5.0 12.0 0.00 0.01 0.00 41 1022.7
20260507092521 52 166 7.0 15.0 0.00 0.01 0.00 42 1022.8
20260507092021 52 146 7.0 16.0 0.00 0.01 0.00 45 1022.8
20260507091529 52 158 7.0 17.0 0.00 0.01 0.00 46 1022.8
20260507091021 52 111 8.0 18.0 0.00 0.01 0.00 46 1022.8
20260507090521 52 140 5.0 18.0 0.00 0.01 0.00 47 1022.9
20260507090022 52 115 9.0 16.0 0.00 0.01 0.00 46 1023.0
20260507085516 52 166 6.0 16.0 0.00 0.15 0.00 44 1023.0
20260507085016 52 142 8.0 15.0 0.00 0.15 0.00 43 1023.0
20260507084515 52 138 7.0 14.0 0.00 0.15 0.00 43 1023.0
20260507084014 52 148 7.0 14.0 0.00 0.15 0.00 42 1023.0
20260507083513 52 154 4.0 11.0 0.00 0.15 0.00 41 1023.0
20260507083013 52 161 5.0 11.0 0.00 0.15 0.00 42 1023.1
20260507082512 51 148 4.0 12.0 0.00 0.15 0.00 42 1023.1
20260507082011 52 169 5.0 12.0 0.00 0.15 0.00 42 1023.2
20260507081511 52 149 6.0 12.0 0.00 0.15 0.00 41 1023.2
20260507081010 52 190 4.0 10.0 0.00 0.15 0.00 40 1023.2
20260507080509 52 124 5.0 10.0 0.00 0.15 0.00 40 1023.4
20260507080007 52 154 4.0 11.0 0.00 0.15 0.00 40 1023.4
20260507075510 52 163 6.0 10.0 0.00 0.15 0.00 42 1023.4
20260507075011 52 131 4.0 10.0 0.00 0.15 0.00 42 1023.4
20260507074507 52 178 4.0 14.0 0.00 0.15 0.00 43 1023.5
20260507074006 53 137 5.0 16.0 0.00 0.15 0.00 44 1023.5
20260507073505 53 234 8.0 16.0 0.00 0.15 0.00 46 1023.5
20260507073005 53 184 7.0 14.0 0.00 0.15 0.00 46 1023.5
20260507072503 53 148 6.0 15.0 0.00 0.15 0.00 45 1023.7
20260507072002 53 130 8.0 15.0 0.00 0.15 0.00 44 1023.7
20260507071502 53 137 6.0 13.0 0.00 0.15 0.00 43 1023.7
20260507071001 53 161 6.0 13.0 0.00 0.15 0.00 43 1023.7
20260507070601 53 159 5.0 12.0 0.00 0.15 0.00 43 1023.8
20260507070059 53 138 5.0 11.0 0.00 0.15 0.00 43 1023.7
20260507065558 52 161 4.0 10.0 0.00 0.15 0.00 42 1023.9
20260507065056 52 154 5.0 10.0 0.00 0.15 0.00 41 1023.7
20260507064559 52 231 3.0 7.0 0.00 0.15 0.00 41 1023.7
20260507064055 51 233 1.0 6.0 0.00 0.15 0.00 41 1023.8
20260507063554 51 221 1.0 6.0 0.00 0.15 0.00 41 1023.9
20260507063102 51 161 1.0 6.0 0.00 0.15 0.00 41 1023.8
20260507062552 52 211 2.0 6.0 0.00 0.15 0.00 42 1023.8